[[{"header":{"parameterUnit":"m.s-1","parameterCategory":2,"la1":30.2991,"la2":30.254,"lo1":-89.0895,"lo2":-89.0444,"dy":0.0017,"dx":0.0017,"nx":28,"ny":28,"refTime":"2024-10-08T21:00:00:Z","depth":"0","parameterNumber":2,"parameterNumberName":"U-component_of_CURRENTS"},"data":[0,0,0,0,0,0,0,0,0,0,0,0,0,0,0,0,0,0,0,0,0,0,0,0,0,0,0,0,0,0,0,0,0,0,0,0,0,0,0,0,0,0,0,0,0,0,0,0,0,0,0,0,0,0,0,0,0,0,0.2475,0.2475,0,0.2485,0.2485,0.2485,0.2465,0.2464,0.2464,0.2463,0.2464,0.2465,0.2465,0,0,0,0,0,0,0,0,0,0,0,0,0,0.2459,0.2459,0.2475,0.2475,0.2475,0.2485,0.2485,0.2485,0.2465,0.2464,0.2464,0.2463,0.2464,0.2465,0.2465,0,0,0,0,0,0,0,0,0,0,0,0,0,0.2465,0.2459,0.2475,0.2468,0.2468,0.2485,0.2485,0.2485,0.2465,0.2464,0.2464,0.2463,0.2464,0.2465,0.2465,0.2485,0,0,0.2468,0.2468,0,0,0,0,0,0,0,0,0.2465,0.2466,0.2469,0.2468,0.2468,0.2474,0.248,0.2485,0.2465,0.2464,0.2463,0.2462,0.2469,0.2469,0.247,0.2485,0.2485,0.2468,0.2468,0.2468,0.2469,0,0,0,0,0,0,0,0.2465,0.2465,0.2477,0.2469,0.2469,0.2472,0.2471,0.2481,0.2469,0.2464,0.2463,0.2467,0.2468,0.2469,0.247,0.2485,0.2468,0.2468,0.2469,0.2469,0.2534,0.2535,0,0,0,0,0,0,0.2467,0.2465,0.2477,0.2478,0.2467,0.2473,0.2472,0.2472,0.2469,0.2468,0.2468,0.2466,0.2468,0.2469,0.247,0.2509,0.2468,0.2469,0.247,0.2532,0.2534,0.2535,0,0,0,0,0,0,0.2466,0.2468,0.2476,0.2473,0.2475,0.2474,0.2473,0.2472,0.2477,0.2472,0.2471,0.2475,0.2468,0.2469,0.2486,0.2508,0.2469,0.247,0.2531,0.2533,0.2535,0.2576,0,0,0,0,0,0,0.2466,0.2467,0.2472,0.2473,0.2475,0.2495,0.2474,0.2473,0.2482,0.248,0.2478,0.2477,0.2467,0.2485,0.2487,0.2508,0.2471,0.2529,0.2532,0.2534,0.2573,0.2579,0.2584,0,0,0,0,0,0.2465,0.2475,0.2472,0.2473,0.2479,0.2496,0.2498,0.2493,0.2483,0.2493,0.249,0.2477,0.2502,0.2487,0.2489,0.251,0.2528,0.2531,0.2534,0.257,0.2578,0.2584,0,0,0,0,0,0,0.2473,0.2474,0.247,0.248,0.2491,0.2494,0.2504,0.25,0.2506,0.2504,0.2493,0.2493,0.2518,0.2511,0.2495,0.2537,0.2513,0.2517,0.2541,0.2548,0.2553,0.2565,0.2471,0,0,0,0,0,0.2477,0.2481,0.2488,0.2497,0.2504,0.2506,0.2513,0.2512,0.2516,0.2517,0.2515,0.2519,0.2532,0.2536,0.2546,0.2568,0.2574,0.2584,0.2589,0.2594,0.2606,0.2632,0.2641,0.2545,0.2545,0.2545,0,0,0.2482,0.2485,0.2486,0.2499,0.2505,0.2523,0.2508,0.2524,0.2539,0.2518,0.2538,0.2541,0.2544,0.2569,0.258,0.2564,0.2627,0.2598,0.2602,0.2611,0.2636,0.2645,0.2654,0.2547,0.2546,0.2546,0,0,0.2495,0.2498,0.2507,0.2521,0.2537,0.2542,0.255,0.2559,0.2563,0.2582,0.2577,0.2596,0.2604,0.2618,0.2623,0.2669,0.2659,0.2669,0.2702,0.2727,0.2736,0.2743,0.2768,0.2778,0.2667,0.2667,0.2667,0,0.2502,0.2509,0.2515,0.2534,0.2545,0.2552,0.257,0.2585,0.2598,0.2607,0.2593,0.2628,0.263,0.267,0.2686,0.2683,0.2692,0.2673,0.2735,0.2742,0.2748,0.2773,0.2782,0.2669,0.2669,0.2669,0.2668,0,0.2521,0.2532,0.2544,0.2563,0.2583,0.26,0.2622,0.2639,0.2641,0.265,0.2686,0.2695,0.2711,0.2721,0.2717,0.277,0.2761,0.2741,0.2715,0.2761,0.2784,0.2793,0.2672,0.2672,0.2671,0.267,0,0,0.2513,0.2547,0.255,0.2559,0.2597,0.2609,0.2648,0.2677,0.2704,0.2716,0.275,0.2779,0.278,0.279,0.2793,0.282,0.2878,0.2803,0.2803,0.2826,0.2937,0.2899,0.2904,0.2864,0.2865,0.2867,0.2936,0,0.2521,0.2547,0.2569,0.2598,0.2611,0.2639,0.2675,0.2708,0.2736,0.2774,0.2793,0.283,0.2808,0.2826,0.2848,0.288,0.2904,0.2862,0.2893,0.2894,0.2852,0.2914,0.2808,0.2858,0.2945,0.2946,0.2947,0,0.2524,0.254,0.2563,0.2602,0.2613,0.2638,0.269,0.2727,0.2793,0.282,0.2858,0.2877,0.2933,0.2902,0.2964,0.2937,0.2942,0.2957,0.2959,0.2916,0.2873,0.2826,0.2871,0.2792,0.2961,0.296,0.2959,0,0.2489,0.2532,0.2543,0.2557,0.261,0.2629,0.2663,0.2732,0.2775,0.2858,0.2897,0.295,0.2986,0.3008,0.303,0.3004,0.3095,0.3056,0.3025,0.3022,0.2936,0.2922,0.2904,0.3096,0.3095,0.3095,0.3095,0,0.2474,0.2481,0.2525,0.2529,0.2557,0.2607,0.2655,0.2708,0.2797,0.2847,0.2913,0.2967,0.3014,0.3061,0.3065,0.3083,0.3117,0.3054,0.3045,0.2947,0.2935,0.2863,0.2835,0.3098,0.3097,0.3097,0.3096,0,0.2424,0.2452,0.2467,0.2518,0.2536,0.2555,0.2641,0.2681,0.2778,0.2851,0.2882,0.2997,0.3065,0.3104,0.3163,0.3128,0.3067,0.3141,0.3028,0.3004,0.2879,0.2858,0.2758,0.2673,0.3122,0.3121,0.3121,0,0.2397,0.2398,0.2445,0.2454,0.2474,0.2516,0.2549,0.2655,0.2707,0.2856,0.2886,0.2999,0.3061,0.315,0.3135,0.3151,0.3051,0.3041,0.2967,0.2879,0.2849,0.2741,0.2669,0.2874,0.2872,0.287,0.2868,0,0.2345,0.2362,0.2374,0.2398,0.2423,0.2454,0.2512,0.2559,0.2678,0.2752,0.2862,0.2938,0.3041,0.3031,0.3061,0.3047,0.2896,0.3,0.2936,0.2687,0.2541,0.2452,0.2829,0.2851,0.2853,0.2854,0.2855,0.2856,0.2301,0.2297,0.2317,0.2332,0.2356,0.2376,0.2382,0.2459,0.2529,0.2613,0.2751,0.2804,0.2885,0.2929,0.2903,0.2788,0.2781,0.2689,0.2684,0.2592,0.2461,0.2806,0.2796,0.2798,0.2799,0.28,0.2801,0,0.2239,0.2241,0.2252,0.226,0.2248,0.2291,0.2337,0.2329,0.2366,0.2465,0.2541,0.2591,0.2607,0.2641,0.2602,0.2491,0.2366,0.2413,0.2236,0.2191,0.2527,0.2466,0.2349,0.2349,0.2349,0.2349,0.235,0.235,0.2206,0.2182,0.2184,0.214,0.2145,0.21,0.2103,0.2114,0.2158,0.2175,0.2188,0.2263,0.2412,0.2446,0.2345,0.2277,0.2087,0.1994,0.1987,0.2235,0.2259,0.2282,0.2217,0.2051,0.205,0.1545,0.1541,0.1538]},{"header":{"parameterUnit":"m.s-1","parameterCategory":2,"la1":30.2991,"la2":30.254,"lo1":-89.0895,"lo2":-89.0444,"dy":0.0017,"dx":0.0017,"nx":28,"ny":28,"refTime":"2024-10-08T21:00:00:Z","depth":"0","parameterNumber":3,"parameterNumberName":"V-component_of_CURRENTS"},"data":[0,0,0,0,0,0,0,0,0,0,0,0,0,0,0,0,0,0,0,0,0,0,0,0,0,0,0,0,0,0,0,0,0,0,0,0,0,0,0,0,0,0,0,0,0,0,0,0,0,0,0,0,0,0,0,0,0,0,-0.0148,-0.0149,0,-0.0204,-0.0204,-0.0205,-0.0238,-0.0238,-0.0238,-0.0238,-0.0306,-0.0308,-0.031,0,0,0,0,0,0,0,0,0,0,0,0,0,-0.0116,-0.0116,-0.0148,-0.0149,-0.0149,-0.0204,-0.0204,-0.0205,-0.0238,-0.0238,-0.0238,-0.0238,-0.0306,-0.0308,-0.031,0,0,0,0,0,0,0,0,0,0,0,0,0,-0.0148,-0.0116,-0.0148,-0.0171,-0.0174,-0.0203,-0.0205,-0.0206,-0.0238,-0.0238,-0.0238,-0.0238,-0.0305,-0.0307,-0.031,-0.0326,0,0,-0.0318,-0.0319,0,0,0,0,0,0,0,0,-0.0146,-0.0149,-0.0167,-0.017,-0.0172,-0.0213,-0.0218,-0.0246,-0.0238,-0.0215,-0.0238,-0.0238,-0.0275,-0.028,-0.0293,-0.033,-0.0333,-0.0319,-0.032,-0.0321,-0.0322,0,0,0,0,0,0,0,-0.0143,-0.0147,-0.0172,-0.0168,-0.0171,-0.0194,-0.0198,-0.0224,-0.0246,-0.0217,-0.022,-0.0223,-0.0277,-0.029,-0.0294,-0.0334,-0.0318,-0.0321,-0.0323,-0.0324,-0.0382,-0.0382,0,0,0,0,0,0,-0.0131,-0.0145,-0.017,-0.0173,-0.0157,-0.0194,-0.0199,-0.0201,-0.0245,-0.0252,-0.0223,-0.0225,-0.0285,-0.0291,-0.0297,-0.0304,-0.0321,-0.0324,-0.0325,-0.0382,-0.0382,-0.0382,0,0,0,0,0,0,-0.013,-0.0133,-0.0168,-0.0159,-0.0165,-0.0194,-0.0196,-0.0202,-0.0212,-0.0249,-0.0256,-0.0226,-0.0286,-0.0293,-0.0315,-0.0307,-0.0325,-0.0328,-0.0382,-0.0382,-0.0382,-0.0327,0,0,0,0,0,0,-0.0129,-0.0132,-0.013,-0.0158,-0.0165,-0.0177,-0.0197,-0.0203,-0.0213,-0.0216,-0.0254,-0.0261,-0.0286,-0.031,-0.0317,-0.0311,-0.033,-0.0383,-0.0382,-0.0382,-0.0328,-0.0325,-0.0321,0,0,0,0,0,-0.0128,-0.0122,-0.013,-0.0133,-0.0161,-0.0176,-0.0182,-0.0204,-0.0213,-0.0214,-0.0241,-0.026,-0.0315,-0.0312,-0.0321,-0.0315,-0.0383,-0.0382,-0.0382,-0.033,-0.0325,-0.0321,0,0,0,0,0,0,-0.0109,-0.0125,-0.0135,-0.0135,-0.0151,-0.0181,-0.0184,-0.0199,-0.0222,-0.0223,-0.026,-0.0268,-0.0286,-0.0309,-0.0306,-0.0332,-0.0351,-0.0353,-0.0309,-0.0305,-0.0301,-0.0279,-0.0332,0,0,0,0,0,-0.0102,-0.0101,-0.0123,-0.0123,-0.0128,-0.0155,-0.0165,-0.0178,-0.0201,-0.0211,-0.0238,-0.0267,-0.0293,-0.0304,-0.0332,-0.0345,-0.036,-0.0347,-0.0344,-0.034,-0.0328,-0.0347,-0.0343,-0.0382,-0.0382,-0.0382,0,0,-0.0096,-0.0104,-0.0105,-0.0119,-0.0134,-0.0132,-0.0161,-0.0169,-0.0168,-0.0215,-0.0224,-0.0257,-0.0295,-0.031,-0.032,-0.0327,-0.0338,-0.034,-0.0337,-0.0327,-0.0346,-0.0342,-0.0339,-0.0382,-0.0382,-0.0382,0,0,-0.0076,-0.0088,-0.0077,-0.0086,-0.01,-0.0114,-0.0112,-0.0138,-0.015,-0.0164,-0.0198,-0.0221,-0.0262,-0.0283,-0.0301,-0.0293,-0.032,-0.0307,-0.0267,-0.0285,-0.0281,-0.0279,-0.0292,-0.029,-0.0302,-0.0302,-0.0302,0,-0.0067,-0.0055,-0.0078,-0.0068,-0.0068,-0.01,-0.0085,-0.0104,-0.0133,-0.0137,-0.0158,-0.0212,-0.0246,-0.0261,-0.026,-0.0283,-0.0298,-0.0278,-0.0278,-0.0276,-0.0274,-0.0288,-0.0287,-0.0299,-0.0299,-0.03,-0.03,0,-0.0036,-0.0027,-0.0022,-0.0017,-0.0022,-0.0015,-0.0037,-0.0045,-0.0064,-0.0082,-0.0104,-0.0154,-0.0181,-0.0202,-0.023,-0.0234,-0.025,-0.0273,-0.0284,-0.0266,-0.0283,-0.0283,-0.0295,-0.0296,-0.0297,-0.0298,0,0,-0.0008,0.0,0.0005,0.0019,0.0009,0.0012,0.0013,0.0009,0.002,-0.0023,-0.0016,-0.0073,-0.0099,-0.0121,-0.0163,-0.0182,-0.0187,-0.0216,-0.0219,-0.022,-0.0222,-0.0222,-0.0223,-0.021,-0.021,-0.021,-0.0238,0,0.0027,0.0064,0.0055,0.0089,0.0107,0.0082,0.0087,0.0076,0.0062,0.0058,0.0003,-0.0013,-0.0069,-0.0081,-0.0109,-0.0166,-0.0185,-0.0177,-0.0247,-0.0249,-0.0244,-0.0222,-0.0185,-0.0206,-0.0238,-0.0238,-0.0238,0,0.0067,0.0087,0.0129,0.015,0.0155,0.0165,0.0179,0.0182,0.0163,0.0149,0.0124,0.008,0.0043,-0.001,-0.0087,-0.0079,-0.0141,-0.019,-0.0193,-0.021,-0.0249,-0.0231,-0.0205,-0.031,-0.0239,-0.0239,-0.0239,0,0.0112,0.0143,0.0182,0.0189,0.02,0.0211,0.0217,0.0211,0.0231,0.0213,0.0223,0.0163,0.0143,0.0057,-0.0047,-0.0066,-0.0131,-0.0171,-0.023,-0.0231,-0.022,-0.022,-0.0293,-0.0222,-0.0222,-0.0222,-0.0222,0,0.016,0.019,0.0205,0.0226,0.0273,0.0259,0.0307,0.0301,0.0311,0.035,0.0277,0.0298,0.016,0.0101,-0.0009,-0.0109,-0.0102,-0.0211,-0.0234,-0.0201,-0.0199,-0.0307,-0.0383,-0.0223,-0.0223,-0.0223,-0.0222,0,0.0205,0.0214,0.026,0.0283,0.0296,0.0329,0.0374,0.041,0.0404,0.0454,0.0452,0.0408,0.0337,0.0195,0.0065,-0.0043,-0.021,-0.0194,-0.0143,-0.0159,-0.0315,-0.0388,-0.0491,-0.0542,-0.0259,-0.0259,-0.0259,0,0.0231,0.026,0.0309,0.0346,0.0359,0.0408,0.0445,0.0457,0.0508,0.0533,0.0569,0.0514,0.0507,0.0317,0.0115,-0.007,-0.0198,-0.0173,-0.0207,-0.0306,-0.0405,-0.0461,-0.0501,-0.0174,-0.0173,-0.0173,-0.0172,0,0.0283,0.0298,0.0338,0.0413,0.0462,0.0525,0.0582,0.0638,0.0661,0.0713,0.0778,0.0776,0.0595,0.044,0.0169,0.0034,-0.024,-0.0169,-0.0284,-0.0348,-0.04,-0.0465,-0.0177,-0.0168,-0.0168,-0.0168,-0.0169,-0.0169,0.0321,0.036,0.0413,0.0488,0.055,0.0632,0.07,0.078,0.0879,0.0971,0.0953,0.099,0.0727,0.0382,0.0176,-0.0179,-0.0216,-0.0289,-0.037,-0.0417,-0.0465,-0.0163,-0.0174,-0.0175,-0.0175,-0.0175,-0.0176,0,0.0369,0.0413,0.0485,0.057,0.065,0.0672,0.0786,0.0869,0.101,0.1107,0.1179,0.109,0.0776,0.0424,-0.0064,-0.0326,-0.043,-0.0478,-0.055,-0.0584,-0.0315,-0.0309,-0.0334,-0.0333,-0.0333,-0.0333,-0.0333,-0.0333,0.0394,0.0468,0.0503,0.0638,0.0705,0.0817,0.089,0.1025,0.1129,0.128,0.1329,0.1332,0.1061,0.0183,-0.0396,-0.0533,-0.0729,-0.0773,-0.0892,-0.0711,-0.0699,-0.0688,-0.0699,-0.0805,-0.0806,-0.1102,-0.1105,-0.1108]}],[{"header":{"parameterUnit":"m.s-1","parameterCategory":2,"la1":30.2991,"la2":30.254,"lo1":-89.0895,"lo2":-89.0444,"dy":0.0017,"dx":0.0017,"nx":28,"ny":28,"refTime":"2024-10-08T21:00:00:Z","depth":"2","parameterNumber":2,"parameterNumberName":"U-component_of_CURRENTS"},"data":[0,0,0,0,0,0,0,0,0,0,0,0,0,0,0,0,0,0,0,0,0,0,0,0,0,0,0,0,0,0,0,0,0,0,0,0,0,0,0,0,0,0,0,0,0,0,0,0,0,0,0,0,0,0,0,0,0,0,0.2084,0.2084,0,0.2098,0.2098,0.2098,0.2096,0.2096,0.2096,0.2096,0.2113,0.2114,0.2114,0,0,0,0,0,0,0,0,0,0,0,0,0,0.206,0.2061,0.2084,0.2084,0.2085,0.2098,0.2098,0.2098,0.2096,0.2096,0.2096,0.2096,0.2113,0.2114,0.2115,0,0,0,0,0,0,0,0,0,0,0,0,0,0.207,0.2061,0.2084,0.2087,0.2087,0.2098,0.2098,0.2098,0.2096,0.2096,0.2096,0.2096,0.2113,0.2114,0.2115,0.212,0,0,0.2117,0.2117,0,0,0,0,0,0,0,0,0.207,0.2071,0.2086,0.2087,0.2087,0.2097,0.2096,0.2106,0.2096,0.2091,0.2096,0.2096,0.211,0.2111,0.2111,0.2121,0.2122,0.2117,0.2117,0.2118,0.2118,0,0,0,0,0,0,0,0.2069,0.207,0.2087,0.2086,0.2087,0.209,0.209,0.2098,0.2099,0.2091,0.2092,0.2097,0.211,0.211,0.2111,0.2122,0.2117,0.2118,0.2118,0.2118,0.2189,0.2191,0,0,0,0,0,0,0.2071,0.207,0.2087,0.2088,0.2081,0.209,0.2091,0.2092,0.2099,0.21,0.2097,0.2096,0.2109,0.211,0.2112,0.216,0.2118,0.2118,0.2119,0.2188,0.219,0.2191,0,0,0,0,0,0,0.2071,0.2072,0.2086,0.2081,0.2083,0.2091,0.2092,0.2093,0.2106,0.2103,0.2104,0.2111,0.2109,0.2111,0.2135,0.2159,0.2119,0.2119,0.2186,0.2188,0.219,0.2231,0,0,0,0,0,0,0.207,0.2072,0.208,0.2081,0.2084,0.2105,0.2092,0.2093,0.2109,0.2109,0.2115,0.2116,0.2109,0.2134,0.2136,0.216,0.212,0.2184,0.2187,0.219,0.2228,0.2234,0.224,0,0,0,0,0,0.2069,0.2079,0.208,0.2083,0.2092,0.2106,0.2108,0.2111,0.211,0.2121,0.2128,0.2117,0.2153,0.2136,0.2138,0.2162,0.2183,0.2186,0.219,0.2225,0.2233,0.224,0,0,0,0,0,0,0.2075,0.208,0.2081,0.2093,0.2105,0.2107,0.212,0.2121,0.2135,0.2139,0.2132,0.2134,0.2166,0.2161,0.2143,0.2192,0.2167,0.2171,0.2194,0.2201,0.2207,0.2217,0.2121,0,0,0,0,0,0.208,0.2087,0.2095,0.2107,0.2114,0.212,0.2128,0.2132,0.2142,0.2148,0.2153,0.2163,0.2179,0.2188,0.2198,0.2223,0.2227,0.2242,0.2248,0.2253,0.2264,0.2286,0.2295,0.2202,0.2202,0.2202,0,0,0.2084,0.209,0.2094,0.2109,0.2117,0.2134,0.2125,0.2145,0.2162,0.2148,0.2178,0.2185,0.2191,0.222,0.2234,0.222,0.2284,0.2257,0.2261,0.2269,0.229,0.2299,0.2307,0.2204,0.2204,0.2203,0,0,0.2097,0.2105,0.2116,0.213,0.215,0.2155,0.2166,0.2179,0.219,0.2216,0.2216,0.2241,0.2257,0.227,0.2277,0.2325,0.2316,0.233,0.2366,0.2387,0.2395,0.2402,0.2423,0.2431,0.2331,0.2331,0.2331,0,0.2105,0.2115,0.2123,0.2142,0.2154,0.2168,0.2185,0.2203,0.2224,0.2237,0.2232,0.2276,0.2282,0.2321,0.2342,0.2339,0.2348,0.2334,0.2394,0.2401,0.2407,0.2427,0.2436,0.2333,0.2333,0.2333,0.2332,0,0.2122,0.2137,0.2148,0.2171,0.219,0.2208,0.2232,0.2256,0.2269,0.2282,0.2325,0.2339,0.2363,0.2374,0.2373,0.2426,0.2418,0.2399,0.2373,0.2419,0.2438,0.2446,0.2336,0.2336,0.2335,0.2334,0,0,0.2114,0.215,0.2155,0.2166,0.2205,0.2217,0.2259,0.2289,0.2321,0.2345,0.2382,0.2418,0.2428,0.2439,0.2447,0.2473,0.2529,0.2461,0.2461,0.2477,0.2582,0.2533,0.2537,0.2517,0.2519,0.252,0.2579,0,0.2122,0.2149,0.2171,0.2202,0.2215,0.2246,0.2284,0.2319,0.2354,0.2398,0.2422,0.2466,0.2452,0.2478,0.25,0.2528,0.2552,0.2515,0.254,0.2541,0.2487,0.2545,0.2351,0.2383,0.2587,0.2588,0.2589,0,0.2125,0.2142,0.2168,0.2207,0.2218,0.2247,0.2304,0.2343,0.2412,0.2443,0.2488,0.2511,0.2569,0.2546,0.2605,0.2583,0.259,0.2602,0.2603,0.255,0.2507,0.237,0.239,0.2602,0.2601,0.26,0.2599,0,0.2094,0.2137,0.2152,0.2167,0.222,0.2244,0.2282,0.2353,0.2396,0.2485,0.2523,0.258,0.262,0.2642,0.2664,0.2643,0.272,0.2687,0.2648,0.2644,0.248,0.2459,0.2725,0.2725,0.2724,0.2724,0.2724,0,0.208,0.2093,0.2141,0.2149,0.2182,0.2232,0.2286,0.2341,0.2428,0.2477,0.2546,0.2592,0.2648,0.2688,0.2693,0.2702,0.2739,0.2673,0.2662,0.249,0.247,0.2656,0.2647,0.2726,0.2726,0.2726,0.2725,0,0.2039,0.207,0.2089,0.2145,0.2166,0.2194,0.228,0.232,0.2417,0.2486,0.2518,0.2621,0.2679,0.2718,0.277,0.2738,0.2754,0.2741,0.2541,0.2505,0.2657,0.2649,0.2711,0.271,0.2709,0.2708,0.2708,0,0.2017,0.2023,0.2076,0.2089,0.2115,0.2166,0.22,0.2304,0.2349,0.2485,0.2507,0.261,0.2649,0.2721,0.2705,0.2715,0.2748,0.2525,0.2449,0.2675,0.2659,0.2653,0.2647,0.225,0.2246,0.2242,0.2239,0,0.1973,0.1996,0.2012,0.2042,0.2073,0.2105,0.2164,0.2197,0.231,0.2368,0.2446,0.25,0.2588,0.252,0.2551,0.2522,0.251,0.2453,0.2745,0.2285,0.2245,0.2227,0.2236,0.2208,0.2211,0.2213,0.2215,0.2216,0.1939,0.1938,0.1963,0.1982,0.2012,0.2025,0.2023,0.2081,0.2128,0.2185,0.2304,0.2313,0.2362,0.2312,0.2248,0.2202,0.237,0.2252,0.2261,0.2274,0.2212,0.2173,0.211,0.2112,0.2115,0.2117,0.2118,0,0.1884,0.1889,0.1901,0.1908,0.1896,0.195,0.1976,0.1943,0.194,0.2023,0.2068,0.1929,0.191,0.195,0.1843,0.1853,0.1813,0.1767,0.1692,0.1727,0.1757,0.1665,0.142,0.1417,0.1415,0.1412,0,0,0.1855,0.1833,0.1832,0.1783,0.1792,0.1745,0.1738,0.1703,0.1721,0.1688,0.1684,0.1834,0.191,0.1633,0.1611,0.1494,0.1591,0.1437,0.2007,0.1954,0.1981,0.2058,0.196,0,0,0,0,0]},{"header":{"parameterUnit":"m.s-1","parameterCategory":2,"la1":30.2991,"la2":30.254,"lo1":-89.0895,"lo2":-89.0444,"dy":0.0017,"dx":0.0017,"nx":28,"ny":28,"refTime":"2024-10-08T21:00:00:Z","depth":"2","parameterNumber":3,"parameterNumberName":"V-component_of_CURRENTS"},"data":[0,0,0,0,0,0,0,0,0,0,0,0,0,0,0,0,0,0,0,0,0,0,0,0,0,0,0,0,0,0,0,0,0,0,0,0,0,0,0,0,0,0,0,0,0,0,0,0,0,0,0,0,0,0,0,0,0,0,0.0183,0.0182,0,0.0139,0.0138,0.0137,0.0101,0.0101,0.01,0.01,0.0042,0.0041,0.0039,0,0,0,0,0,0,0,0,0,0,0,0,0,0.0202,0.0202,0.0183,0.0182,0.0182,0.0139,0.0138,0.0137,0.0101,0.0101,0.01,0.01,0.0042,0.0041,0.0039,0,0,0,0,0,0,0,0,0,0,0,0,0,0.0179,0.0202,0.0183,0.0159,0.0157,0.0139,0.0138,0.0137,0.0101,0.0101,0.01,0.01,0.0043,0.0041,0.0039,0.0037,0,0,0.0033,0.0033,0,0,0,0,0,0,0,0,0.018,0.0178,0.0163,0.0161,0.0158,0.0125,0.0123,0.0103,0.0101,0.0121,0.01,0.0099,0.0069,0.0065,0.0057,0.0035,0.0032,0.0033,0.0032,0.0031,0.0031,0,0,0,0,0,0,0,0.0182,0.018,0.0165,0.0163,0.0159,0.0139,0.0135,0.0119,0.0098,0.012,0.0117,0.0113,0.0068,0.0059,0.0056,0.0031,0.0033,0.0032,0.0031,0.003,-0.0007,-0.0007,0,0,0,0,0,0,0.0191,0.0181,0.0166,0.0163,0.0169,0.0139,0.0135,0.0136,0.0098,0.0092,0.0114,0.0112,0.0063,0.0058,0.0053,0.0049,0.0031,0.003,0.0029,-0.0008,-0.0007,-0.0007,0,0,0,0,0,0,0.0192,0.019,0.0168,0.0172,0.0167,0.014,0.014,0.0135,0.0124,0.0094,0.0088,0.0108,0.0062,0.0056,0.004,0.0046,0.0029,0.0027,-0.0008,-0.0008,-0.0007,0.0039,0,0,0,0,0,0,0.0193,0.0191,0.0192,0.0172,0.0167,0.0162,0.0141,0.0135,0.0123,0.012,0.0087,0.0082,0.0061,0.0043,0.0038,0.0043,0.0026,-0.0008,-0.0008,-0.0007,0.0038,0.0041,0.0044,0,0,0,0,0,0.0194,0.0202,0.0193,0.0191,0.0171,0.0163,0.0159,0.0136,0.0124,0.0124,0.01,0.0082,0.0041,0.0042,0.0036,0.0041,-0.0008,-0.0008,-0.0007,0.0036,0.004,0.0044,0,0,0,0,0,0,0.021,0.0199,0.0188,0.0192,0.018,0.0157,0.0154,0.0139,0.012,0.0116,0.0085,0.0078,0.0065,0.0047,0.0048,0.003,0.0013,0.0012,0.0048,0.0052,0.0055,0.007,0.0024,0,0,0,0,0,0.0216,0.0219,0.0203,0.0205,0.0201,0.0177,0.017,0.0156,0.0138,0.0128,0.0105,0.008,0.0062,0.0053,0.0032,0.0026,0.0006,0.0023,0.0027,0.003,0.0037,0.0013,0.0015,-0.0006,-0.0006,-0.0006,0,0,0.0222,0.0216,0.0217,0.0209,0.0196,0.02,0.0171,0.0165,0.0166,0.0126,0.0117,0.009,0.0062,0.0052,0.0044,0.0038,0.0025,0.003,0.0033,0.0039,0.0014,0.0016,0.0018,-0.0006,-0.0006,-0.0006,0,0,0.0242,0.0233,0.0244,0.0237,0.0225,0.0214,0.0215,0.0193,0.0181,0.0169,0.014,0.012,0.009,0.0074,0.0062,0.0072,0.0041,0.0061,0.0092,0.0069,0.0071,0.0072,0.0049,0.0048,0.0065,0.0065,0.0065,0,0.0249,0.0263,0.0245,0.0254,0.0255,0.0225,0.0239,0.0225,0.02,0.0195,0.0172,0.0129,0.0103,0.0096,0.0096,0.008,0.006,0.0081,0.0074,0.0075,0.0075,0.0051,0.005,0.0067,0.0067,0.0067,0.0067,0,0.028,0.0288,0.0295,0.03,0.0298,0.0305,0.0287,0.0279,0.0257,0.0242,0.0222,0.018,0.0157,0.0142,0.0121,0.0115,0.0096,0.008,0.0067,0.0081,0.0054,0.0052,0.0071,0.007,0.0069,0.0069,0,0,0.0304,0.0315,0.0318,0.0331,0.0324,0.0329,0.0331,0.0329,0.0338,0.0296,0.0298,0.0255,0.0227,0.0211,0.0177,0.0154,0.0136,0.0122,0.0119,0.0105,0.0083,0.0073,0.0069,0.0116,0.0116,0.0115,0.0062,0,0.0334,0.0369,0.0364,0.0396,0.0413,0.0392,0.0399,0.039,0.0375,0.0368,0.0318,0.0305,0.0255,0.0243,0.0212,0.0158,0.0131,0.0152,0.0067,0.0064,0.0059,0.0067,0.0089,0.0044,0.0059,0.0059,0.0059,0,0.0368,0.0389,0.0427,0.0451,0.0456,0.0466,0.048,0.0486,0.0467,0.0453,0.0425,0.0383,0.0344,0.0296,0.021,0.0224,0.0159,0.011,0.0106,0.0082,0.005,0.0032,0.0039,0.0054,0.0054,0.0054,0.0055,0,0.0403,0.0435,0.0471,0.0477,0.0495,0.0504,0.0513,0.0509,0.053,0.0508,0.0514,0.0452,0.0428,0.0337,0.023,0.0219,0.0131,0.0104,0.0033,0.0031,0.0027,0.0025,0.0041,0.0042,0.0042,0.0042,0.0042,0,0.0443,0.047,0.0489,0.0507,0.0552,0.0545,0.059,0.0586,0.0597,0.0633,0.0562,0.0571,0.0436,0.0366,0.0256,0.0142,0.015,0.0043,0.0019,0.0043,0.0044,0.0033,0.0032,0.004,0.004,0.0041,0.0041,0,0.0476,0.0486,0.053,0.0557,0.0569,0.0601,0.065,0.0686,0.0681,0.0723,0.0718,0.0665,0.0575,0.0433,0.0293,0.019,0.0072,0.0026,0.0063,0.0045,-0.0022,-0.0019,-0.0056,-0.0057,-0.0058,-0.0058,-0.0059,0,0.0497,0.0522,0.0571,0.0604,0.0617,0.0666,0.0706,0.0726,0.0775,0.0788,0.0816,0.074,0.0708,0.0496,0.0299,0.0106,0.0074,-0.0002,-0.002,-0.0012,-0.0031,-0.0027,-0.0024,-0.0011,-0.0011,-0.0011,-0.0011,0,0.0538,0.0552,0.0589,0.0659,0.0706,0.0774,0.0832,0.0885,0.0914,0.0948,0.098,0.0951,0.0748,0.0564,0.0295,0.0167,0.0029,-0.0008,-0.0007,0.0014,0.0028,0.001,0.0012,-0.0011,-0.0011,-0.0011,-0.0011,-0.0011,0.0568,0.0602,0.0652,0.072,0.0781,0.0868,0.0935,0.1004,0.1088,0.1138,0.1107,0.1064,0.0843,0.0508,0.0273,0.0024,0.0038,-0.005,-0.0048,-0.0047,-0.0029,-0.0016,-0.006,-0.006,-0.0061,-0.0061,-0.0061,0,0.0606,0.0646,0.0711,0.0793,0.087,0.0896,0.1012,0.1083,0.1188,0.1216,0.1236,0.1029,0.0813,0.0548,0.0183,-0.0029,-0.0045,-0.0098,-0.0073,-0.007,-0.0069,-0.0051,-0.0089,-0.009,-0.0091,-0.0092,0,0,0.0626,0.0692,0.0726,0.0851,0.0913,0.1025,0.1098,0.1198,0.1251,0.1289,0.1258,0.1201,0.0886,0.0616,0.0325,0.0112,0.0069,0.0073,0.0122,0.0189,0.0193,-0.0011,0.0022,0,0,0,0,0]}],[{"header":{"parameterUnit":"m.s-1","parameterCategory":2,"la1":30.2991,"la2":30.254,"lo1":-89.0895,"lo2":-89.0444,"dy":0.0017,"dx":0.0017,"nx":28,"ny":28,"refTime":"2024-10-08T21:00:00:Z","depth":"4","parameterNumber":2,"parameterNumberName":"U-component_of_CURRENTS"},"data":[0,0,0,0,0,0,0,0,0,0,0,0,0,0,0,0,0,0,0,0,0,0,0,0,0,0,0,0,0,0,0,0,0,0,0,0,0,0,0,0,0,0,0,0,0,0,0,0,0,0,0,0,0,0,0,0,0,0,0.1234,0.1235,0,0.127,0.1271,0.1271,0.1306,0.1307,0.1307,0.1308,0.135,0.135,0.1351,0,0,0,0,0,0,0,0,0,0,0,0,0,0.1185,0.1186,0.1234,0.1235,0.1235,0.127,0.1271,0.1271,0.1306,0.1307,0.1308,0.1308,0.1349,0.135,0.1351,0,0,0,0,0,0,0,0,0,0,0,0,0,0.1211,0.1186,0.1234,0.1258,0.1261,0.127,0.1271,0.1271,0.1306,0.1307,0.1308,0.1309,0.1349,0.135,0.1351,0.1337,0,0,0.1353,0.1354,0,0,0,0,0,0,0,0,0.1209,0.1212,0.1254,0.1257,0.126,0.1286,0.1269,0.1294,0.1306,0.1287,0.1308,0.1309,0.1329,0.1332,0.1334,0.1339,0.1341,0.1353,0.1354,0.1354,0.1354,0,0,0,0,0,0,0,0.1207,0.1211,0.1247,0.1255,0.1258,0.1264,0.1269,0.1273,0.1301,0.1289,0.1292,0.1298,0.1331,0.1333,0.1335,0.1341,0.1353,0.1354,0.1355,0.1355,0.1432,0.1433,0,0,0,0,0,0,0.1206,0.1209,0.1246,0.1248,0.1238,0.1264,0.1269,0.1275,0.1301,0.1307,0.1298,0.13,0.1331,0.1334,0.1337,0.1403,0.1354,0.1355,0.1355,0.143,0.1432,0.1434,0,0,0,0,0,0,0.1205,0.1209,0.1244,0.1231,0.1236,0.1265,0.1271,0.1276,0.1308,0.1308,0.1313,0.1329,0.1332,0.1336,0.1371,0.1402,0.1355,0.1356,0.1429,0.1431,0.1433,0.1483,0,0,0,0,0,0,0.1203,0.1208,0.1225,0.1231,0.1237,0.1269,0.127,0.1276,0.131,0.1314,0.1336,0.1339,0.1333,0.137,0.1371,0.1402,0.1357,0.1427,0.143,0.1432,0.148,0.1487,0.1494,0,0,0,0,0,0.1201,0.1215,0.1226,0.1231,0.1255,0.127,0.1275,0.1296,0.1311,0.1329,0.1348,0.134,0.139,0.1371,0.1373,0.1405,0.1425,0.1429,0.1432,0.1477,0.1486,0.1493,0,0,0,0,0,0,0.1204,0.1221,0.1232,0.1252,0.1271,0.1278,0.13,0.1313,0.1341,0.1355,0.1355,0.136,0.1403,0.1398,0.1378,0.1437,0.1408,0.1412,0.1442,0.145,0.1457,0.1465,0.1357,0,0,0,0,0,0.1211,0.123,0.1244,0.1264,0.1276,0.1294,0.1309,0.1324,0.1343,0.1358,0.1375,0.1395,0.1413,0.1428,0.1441,0.1469,0.1472,0.1493,0.15,0.1506,0.1516,0.1545,0.1555,0.1446,0.1446,0.1446,0,0,0.1219,0.1231,0.1243,0.1267,0.1284,0.1306,0.1306,0.1338,0.1364,0.1357,0.1408,0.142,0.1427,0.1463,0.1482,0.1466,0.1541,0.1511,0.1515,0.1522,0.1549,0.156,0.1569,0.1448,0.1448,0.1447,0,0,0.1233,0.1255,0.1274,0.1292,0.1325,0.1334,0.1351,0.1377,0.1402,0.144,0.1448,0.1483,0.1509,0.1522,0.153,0.1583,0.1576,0.1592,0.1633,0.1661,0.167,0.1678,0.17,0.1709,0.1595,0.1595,0.1595,0,0.1245,0.1265,0.1283,0.1305,0.1325,0.1351,0.1375,0.1401,0.1439,0.146,0.1468,0.1527,0.1536,0.1577,0.1602,0.1599,0.1612,0.1598,0.167,0.1678,0.1685,0.1705,0.1715,0.1598,0.1598,0.1597,0.1597,0,0.1263,0.1292,0.1306,0.1343,0.1366,0.1393,0.1425,0.1462,0.1494,0.1516,0.1576,0.1595,0.163,0.1642,0.164,0.1701,0.1693,0.1674,0.1646,0.1699,0.1717,0.1726,0.1602,0.1601,0.16,0.1599,0,0,0.1255,0.1308,0.1317,0.1339,0.1389,0.1405,0.1457,0.15,0.1543,0.1587,0.1638,0.1682,0.1702,0.1714,0.1723,0.1753,0.1819,0.1745,0.1745,0.1762,0.1886,0.1764,0.1762,0.1816,0.1817,0.1819,0.1879,0,0.1267,0.1307,0.1334,0.1381,0.1402,0.1444,0.1488,0.1536,0.1583,0.1642,0.1677,0.1734,0.1726,0.176,0.1789,0.1815,0.1846,0.1805,0.1837,0.1838,0.1719,0.177,0.1825,0.1885,0.1887,0.1889,0.189,0,0.1271,0.1298,0.1342,0.1396,0.1412,0.1452,0.1525,0.157,0.1651,0.1693,0.1753,0.1785,0.1851,0.1836,0.1904,0.1881,0.1895,0.1906,0.1908,0.1783,0.1732,0.1821,0.1906,0.1905,0.1904,0.1903,0.1902,0,0.1241,0.13,0.1336,0.1356,0.1425,0.1463,0.1509,0.1591,0.1637,0.1741,0.1786,0.1857,0.1907,0.1939,0.1965,0.1949,0.2029,0.2,0.1901,0.1892,0.1961,0.1952,0.2048,0.2048,0.2048,0.2048,0.2047,0,0.1224,0.1256,0.1332,0.1351,0.1404,0.146,0.1532,0.1592,0.1684,0.1737,0.1818,0.1864,0.194,0.1985,0.1995,0.1974,0.2052,0.1919,0.1902,0.1981,0.1974,0.1968,0.1958,0.205,0.2049,0.2049,0.2049,0,0.1182,0.1233,0.1278,0.1361,0.1392,0.1435,0.1538,0.1581,0.1684,0.1758,0.1796,0.1896,0.1951,0.2001,0.206,0.1999,0.2001,0.1974,0.2069,0.2054,0.184,0.1832,0.1867,0.1863,0.186,0.1858,0.1855,0,0.116,0.1182,0.1278,0.1308,0.1352,0.1426,0.147,0.1575,0.1616,0.1753,0.177,0.1873,0.1922,0.1904,0.1968,0.1979,0.1953,0.194,0.1878,0.1843,0.1824,0.1821,0.1817,0.185,0.1849,0.1849,0.1848,0,0.1116,0.1167,0.1204,0.1267,0.1321,0.1366,0.1437,0.1455,0.1567,0.1674,0.1706,0.1737,0.1793,0.1827,0.1852,0.1852,0.1939,0.1906,0.1912,0.1853,0.1823,0.1806,0.1806,0.1837,0.1838,0.1839,0.184,0,0.1089,0.1104,0.1163,0.1207,0.1267,0.1279,0.1327,0.1365,0.1417,0.1557,0.1566,0.1671,0.1773,0.1763,0.1784,0.1778,0.1746,0.1681,0.1698,0.1711,0.163,0.1566,0.1496,0,0,0,0,0,0.1051,0.1056,0.1092,0.1123,0.1177,0.1212,0.1288,0.1334,0.144,0.1421,0.1488,0.1531,0.1566,0.1623,0.1585,0.1717,0.1755,0.1665,0.1688,0.1776,0.1788,0.1707,0,0,0,0,0,0,0.1023,0.1057,0.1062,0.1044,0.1051,0.1091,0.1136,0.1207,0.1199,0.1318,0.1344,0.144,0.1497,0.1573,0.1557,0.1574,0.1556,0.1736,0.1732,0.1768,0.178,0.179,0.1711,0,0,0,0,0]},{"header":{"parameterUnit":"m.s-1","parameterCategory":2,"la1":30.2991,"la2":30.254,"lo1":-89.0895,"lo2":-89.0444,"dy":0.0017,"dx":0.0017,"nx":28,"ny":28,"refTime":"2024-10-08T21:00:00:Z","depth":"4","parameterNumber":3,"parameterNumberName":"V-component_of_CURRENTS"},"data":[0,0,0,0,0,0,0,0,0,0,0,0,0,0,0,0,0,0,0,0,0,0,0,0,0,0,0,0,0,0,0,0,0,0,0,0,0,0,0,0,0,0,0,0,0,0,0,0,0,0,0,0,0,0,0,0,0,0,0.0266,0.0266,0,0.0247,0.0247,0.0246,0.0231,0.0231,0.0231,0.0231,0.0207,0.0207,0.0206,0,0,0,0,0,0,0,0,0,0,0,0,0,0.0266,0.0267,0.0266,0.0266,0.0266,0.0247,0.0247,0.0246,0.0231,0.0231,0.0231,0.0231,0.0207,0.0207,0.0206,0,0,0,0,0,0,0,0,0,0,0,0,0,0.0258,0.0267,0.0266,0.0256,0.0255,0.0247,0.0247,0.0246,0.0231,0.0231,0.0231,0.023,0.0208,0.0207,0.0206,0.0205,0,0,0.0204,0.0204,0,0,0,0,0,0,0,0,0.0259,0.0258,0.0258,0.0257,0.0256,0.0241,0.0238,0.0232,0.0231,0.024,0.0231,0.023,0.0219,0.0217,0.0213,0.0204,0.0203,0.0204,0.0203,0.0203,0.0203,0,0,0,0,0,0,0,0.0259,0.0259,0.0258,0.0258,0.0256,0.0244,0.0243,0.0237,0.023,0.0239,0.0238,0.0236,0.0218,0.0214,0.0213,0.0203,0.0204,0.0203,0.0203,0.0202,0.0196,0.0196,0,0,0,0,0,0,0.0264,0.026,0.0259,0.0258,0.0257,0.0245,0.0243,0.0246,0.023,0.0228,0.0237,0.0236,0.0216,0.0214,0.0212,0.022,0.0203,0.0202,0.0202,0.0196,0.0196,0.0197,0,0,0,0,0,0,0.0264,0.0264,0.026,0.0258,0.0257,0.0245,0.0248,0.0246,0.0245,0.0229,0.0226,0.0239,0.0215,0.0213,0.0212,0.0218,0.0202,0.0201,0.0196,0.0196,0.0196,0.0229,0,0,0,0,0,0,0.0264,0.0265,0.0269,0.0259,0.0257,0.026,0.0248,0.0245,0.0244,0.0243,0.0229,0.0227,0.0215,0.0213,0.0211,0.0217,0.0201,0.0195,0.0196,0.0196,0.0228,0.0231,0.0234,0,0,0,0,0,0.0264,0.0274,0.027,0.027,0.0264,0.0261,0.0259,0.0249,0.0245,0.0247,0.0239,0.0227,0.0215,0.0213,0.021,0.0216,0.0195,0.0196,0.0196,0.0227,0.023,0.0233,0,0,0,0,0,0,0.0276,0.0273,0.0268,0.0276,0.0271,0.0258,0.0261,0.0254,0.0249,0.0249,0.0232,0.023,0.023,0.0219,0.0217,0.0216,0.0202,0.0203,0.0226,0.023,0.0232,0.0238,0.02,0,0,0,0,0,0.0281,0.0288,0.028,0.0286,0.0285,0.0274,0.0272,0.0266,0.0259,0.0257,0.0246,0.0237,0.023,0.0227,0.0219,0.022,0.0199,0.0222,0.0225,0.0227,0.023,0.0203,0.0203,0.0199,0.0199,0.0199,0,0,0.0288,0.0287,0.0291,0.0289,0.0284,0.0289,0.0272,0.0274,0.0278,0.0256,0.0259,0.0246,0.0232,0.0233,0.0232,0.0226,0.0217,0.0228,0.023,0.0231,0.0203,0.0204,0.0204,0.0199,0.0199,0.0199,0,0,0.0304,0.0303,0.0314,0.0312,0.0309,0.0304,0.0307,0.0297,0.0294,0.0294,0.0279,0.0271,0.0262,0.0252,0.0246,0.0259,0.0232,0.0257,0.0276,0.025,0.025,0.025,0.0222,0.0219,0.0259,0.0259,0.0259,0,0.0311,0.0324,0.0316,0.0324,0.0328,0.0313,0.0326,0.032,0.0311,0.0312,0.03,0.0283,0.027,0.0269,0.0273,0.0266,0.0245,0.0266,0.0254,0.0253,0.0252,0.0223,0.0219,0.0261,0.0261,0.026,0.026,0,0.0333,0.0344,0.0351,0.0359,0.0361,0.037,0.0363,0.0362,0.0355,0.0348,0.0342,0.0319,0.0309,0.0302,0.0293,0.0285,0.027,0.026,0.0246,0.0255,0.0223,0.0219,0.0263,0.0263,0.0262,0.0262,0,0,0.0348,0.0364,0.0367,0.038,0.0382,0.0389,0.0396,0.0399,0.0409,0.0387,0.0391,0.0371,0.0355,0.0347,0.0328,0.0305,0.028,0.0284,0.0281,0.0256,0.0219,0.0205,0.0199,0.0267,0.0266,0.0266,0.0198,0,0.0369,0.0397,0.0398,0.0427,0.0442,0.0434,0.0445,0.0444,0.0439,0.0438,0.0405,0.0403,0.0374,0.0371,0.0342,0.03,0.027,0.0299,0.0213,0.0211,0.0198,0.0194,0.0264,0.0195,0.0194,0.0193,0.0192,0,0.0389,0.0407,0.044,0.0467,0.0473,0.0488,0.0505,0.0514,0.0505,0.05,0.0482,0.0455,0.0424,0.0395,0.0316,0.0335,0.0281,0.024,0.0236,0.0209,0.0189,0.0183,0.0184,0.0184,0.0185,0.0186,0.0186,0,0.0406,0.0438,0.0469,0.0477,0.0501,0.0516,0.0531,0.0535,0.0554,0.0542,0.0547,0.0498,0.0479,0.0402,0.0317,0.0316,0.0222,0.0209,0.0141,0.0139,0.0157,0.0158,0.0146,0.0146,0.0146,0.0146,0.0147,0,0.0426,0.0451,0.0482,0.0498,0.0541,0.0546,0.059,0.0593,0.0606,0.0631,0.0585,0.0582,0.048,0.0414,0.0327,0.0221,0.0227,0.0141,0.0121,0.0172,0.0176,0.0153,0.0155,0.0144,0.0144,0.0145,0.0145,0,0.0437,0.0456,0.0497,0.0533,0.0551,0.0583,0.0638,0.0667,0.0672,0.07,0.0698,0.0646,0.0557,0.0446,0.0321,0.0243,0.0139,0.0098,0.0161,0.0146,0.0068,0.0073,0.0014,0.0013,0.0012,0.0011,0.001,0,0.0445,0.0467,0.0526,0.0558,0.058,0.0632,0.0671,0.0699,0.0733,0.0738,0.0748,0.0676,0.0623,0.0438,0.0317,0.014,0.0114,0.0057,0.0059,0.0069,0.0055,0.006,0.0066,0.0009,0.0009,0.0008,0.0008,0,0.0461,0.0485,0.0519,0.0588,0.0638,0.0699,0.0754,0.078,0.0808,0.0814,0.0786,0.0689,0.0586,0.0438,0.0301,0.0176,0.0092,0.0047,0.0048,0.0049,0.0063,0.005,0.0057,0.0005,0.0006,0.0006,0.0006,0,0.0475,0.0503,0.0554,0.0613,0.068,0.074,0.0772,0.0805,0.0835,0.0831,0.082,0.0707,0.0645,0.0456,0.0332,0.0204,0.0167,0.0122,0.0119,0.012,0.0169,0.0203,0.017,0,0,0,0,0,0.0486,0.0519,0.0576,0.0641,0.0708,0.0751,0.0815,0.084,0.0863,0.0847,0.0835,0.0736,0.0548,0.0473,0.0342,0.0306,0.0141,0.0146,0.0087,-0.0012,-0.0008,0.0029,0,0,0,0,0,0,0.0493,0.0546,0.0573,0.0654,0.0703,0.0782,0.0825,0.0844,0.0836,0.0835,0.0741,0.0695,0.0517,0.0622,0.0337,0.0299,0.0241,0.0062,0.0059,-0.0014,-0.0011,-0.0008,0.0032,0,0,0,0,0]}]]